Location: Kielce
(50.8833°N, 20.6167°E)
Time: 22:26:29
(UTC+02:00)

SR - Pass Details

Date: 23 April 2021
Orbit: 573 x 882 km, 66.7° (Epoch: 09 May)

Event Time Altitude Azimuth Distance (km) Brightness Sun altitude
Rises 14:41:43 0° 322° (NW) 3,489 ? 44.1°
Reaches altitude 10° 14:44:21 10° 327° (NNW) 2,537 ? 43.8°
Maximum altitude 14:50:05 50° 43° (NE) 1,074 ? 43.1°
Drops below altitude 10° 14:55:31 10° 119° (ESE) 2,398 ? 42.5°
Sets 14:57:56 0° 124° (SE) 3,282 ? 42.2°
